Location: Arbon
(43.0005°N, 0.7472°E)
Time: 16:56:32
(UTC+00:00)

Cosmos 1607 - Pass Details

Date: 07 August 2020
Orbit: 911 x 991 km, 65.0° (Epoch: 22 September)

Event Time Altitude Azimuth Distance (km) Brightness Sun altitude
Rises 02:16:49 0° 326° (NNW) 3,691 7.3 -23.2°
Reaches altitude 10° 02:19:24 10° 328° (NNW) 2,747 6.6 -22.9°
Maximum altitude 02:25:52 80° 55° (NE) 1,010 4.1 -22.2°
Drops below altitude 10° 02:32:21 10° 143° (SE) 2,744 6.2 -21.5°
Sets 02:34:55 0° 145° (SE) 3,687 6.9 -21.2°
